{"data":{"norad_id":54159,"epoch":"2026-05-25T02:46:38.526816Z","epoch_age_seconds":75699,"freshness":"FRESH","line1":"1 54159U 22141C   26145.11572369 -.00000191  00000+0  60647-5 0  9995","line2":"2 54159  53.2143  31.1322 0001446  74.4495 285.6656 15.08833451197254","mean_motion":15.08833451,"eccentricity":0.0001446,"inclination_deg":53.2143,"raan_deg":31.1322,"arg_perigee_deg":74.4495,"mean_anomaly_deg":285.6656,"bstar":6.0647e-6,"rev_number":19725,"period_min":95.437968918678,"perigee_km":538.76307831073,"apogee_km":540.76373510835,"semimajor_km":6917.9004067095,"source":"CELESTRAK","updated_at":"2026-05-25T13:38:17.659333Z"}}